カタログに戻る

STARLINK-11515

運用中通信VLEO
NORAD 62556·PAYLOAD·🇺🇸 United States

打ち上げ Jan 10, 2025 から Cape Canaveral Space Force Station

Loading…

次のパス (今後24時間)

TLE

最新Source: CelesTrak SupGP

元期: Sep 14, 2026, 22:21 UTC

1 62556C 25006C   26257.93173611  .00078216  00000+0  60768-3 0  2570
2 62556  43.0008  79.5172 0001664 282.0842  12.9256 15.70792476    19

AllMySatでSTARLINK-11515をリアルタイム追跡

Download on the App Store